Tracking 17887 objects as of 11-December-2016
HD Live streaming from Space Station
objects crossing your sky now

USA 113

Track USA 113 now!
USA 113 is classified as:


NORAD ID: 23628
Int'l Code: 1995-038A
Perigee: 35,779.4 km
Apogee: 35,809.1 km
Inclination: 10.1 °
Period: 1,436.1 minutes
Semi major axis: 42165 km
RCS: Unknown
Launch date: July 31, 1995
Source: United States (US)
Launch site: AIR FORCE EASTERN TEST RANGE (AFETR)

Super High Frequency (SHF) for U.S. government and military; sophisticated survivability enhancement; worldwide, longhaul coverage; X-band.
Your satellite tracking list
Your tracking list is empty





NASA's NSSDC Master Catalog

Two Line Element Set (TLE):
1 23628U 95038A   16329.64722082 0.00000000  00000-0  00000-0 0    01
2 23628  10.0654  40.6121 0003516 111.6319 248.4234  1.00270000    07
Source of the keplerian elements: McCants